Time,TemperatureF,DewpointF,PressureIn,WindDirection,WindDirectionDegrees,WindSpeedMPH,WindSpeedGustMPH,Humidity,HourlyPrecipIn,Conditions,Clouds,dailyrainin,SolarRadiationWatts/m^2,SoftwareType,DateUTC
2013-09-20 00:03:00,65.0,65.0,-100.00,WSW,237,2.0,9.0,100,0.00,,,0.74,0.000000,,2013-09-20 05:03:00,
2013-09-20 00:43:00,65.0,65.0,-100.00,WSW,242,0.0,6.0,100,0.00,,,0.74,0.000000,,2013-09-20 05:43:00,
2013-09-20 00:53:00,65.0,65.0,-100.00,WSW,242,0.0,6.0,100,0.00,,,0.74,0.000000,,2013-09-20 05:53:00,
2013-09-20 01:03:00,65.0,65.0,-100.00,WSW,242,0.0,6.0,100,0.00,,,0.74,0.000000,,2013-09-20 06:03:00,
2013-09-20 01:42:00,64.0,63.0,-100.00,WNW,291,5.0,10.0,95,0.00,,,0.74,0.000000,,2013-09-20 06:42:00,
2013-09-20 01:52:00,64.0,63.0,-100.00,WNW,291,5.0,10.0,95,0.00,,,0.74,0.000000,,2013-09-20 06:52:00,
2013-09-20 02:02:00,64.0,63.0,-100.00,WNW,291,5.0,10.0,95,0.00,,,0.74,0.000000,,2013-09-20 07:02:00,
2013-09-20 02:42:00,61.0,59.0,-100.00,WNW,298,3.0,10.0,93,0.00,,,0.74,0.000000,,2013-09-20 07:42:00,
2013-09-20 02:53:00,61.0,59.0,-100.00,WNW,298,3.0,10.0,93,0.00,,,0.74,0.000000,,2013-09-20 07:53:00,
2013-09-20 03:02:00,61.0,59.0,-100.00,WNW,298,3.0,10.0,93,0.00,,,0.74,0.000000,,2013-09-20 08:02:00,
2013-09-20 03:42:00,59.0,55.0,-100.00,NW,311,7.0,13.0,86,0.00,,,0.74,0.000000,,2013-09-20 08:42:00,
2013-09-20 03:52:00,59.0,55.0,-100.00,NW,311,7.0,13.0,86,0.00,,,0.74,0.000000,,2013-09-20 08:52:00,
2013-09-20 04:01:00,59.0,55.0,-100.00,NW,311,7.0,13.0,86,0.00,,,0.74,0.000000,,2013-09-20 09:01:00,
2013-09-20 04:44:00,59.0,54.0,-100.00,NW,316,6.0,11.0,85,0.00,,,0.74,0.000000,,2013-09-20 09:44:00,
2013-09-20 04:53:00,59.0,54.0,-100.00,NW,316,6.0,11.0,85,0.00,,,0.74,0.000000,,2013-09-20 09:53:00,
2013-09-20 05:03:00,59.0,54.0,-100.00,NW,316,6.0,11.0,85,0.00,,,0.74,0.000000,,2013-09-20 10:03:00,
2013-09-20 05:42:00,59.0,54.0,-100.00,NW,304,4.0,11.0,85,0.00,,,0.74,0.000000,,2013-09-20 10:42:00,
2013-09-20 05:53:00,59.0,54.0,-100.00,NW,304,4.0,11.0,85,0.00,,,0.74,0.000000,,2013-09-20 10:53:00,
2013-09-20 06:03:00,59.0,54.0,-100.00,NW,304,4.0,11.0,85,0.00,,,0.74,0.000000,,2013-09-20 11:03:00,
2013-09-20 06:42:00,56.0,52.0,-100.00,WNW,293,4.0,11.0,87,0.00,,,0.74,0.000000,,2013-09-20 11:42:00,
2013-09-20 06:52:00,56.0,52.0,-100.00,WNW,293,4.0,11.0,87,0.00,,,0.74,0.000000,,2013-09-20 11:52:00,
2013-09-20 07:02:00,56.0,52.0,-100.00,WNW,293,4.0,11.0,87,0.00,,,0.74,0.000000,,2013-09-20 12:02:00,
2013-09-20 07:43:00,55.0,52.0,-100.00,WNW,291,5.0,12.0,89,0.00,,,0.74,0.000000,,2013-09-20 12:43:00,
2013-09-20 07:52:00,55.0,52.0,-100.00,WNW,291,5.0,12.0,89,0.00,,,0.74,0.000000,,2013-09-20 12:52:00,
2013-09-20 08:02:00,55.0,52.0,-100.00,WNW,291,5.0,12.0,89,0.00,,,0.74,0.000000,,2013-09-20 13:02:00,
2013-09-20 08:42:00,54.0,51.0,-100.00,WNW,285,5.0,11.0,88,0.00,,,0.74,28.000000,,2013-09-20 13:42:00,
2013-09-20 08:52:00,54.0,51.0,-100.00,WNW,285,5.0,11.0,88,0.00,,,0.74,28.000000,,2013-09-20 13:52:00,
2013-09-20 09:02:00,54.0,51.0,-100.00,WNW,285,5.0,11.0,88,0.00,,,0.74,28.000000,,2013-09-20 14:02:00,
2013-09-20 09:42:00,55.0,51.0,-100.00,WNW,291,6.0,12.0,85,0.00,,,0.74,97.000000,,2013-09-20 14:42:00,
2013-09-20 09:52:00,55.0,51.0,-100.00,WNW,291,6.0,12.0,85,0.00,,,0.74,97.000000,,2013-09-20 14:52:00,
2013-09-20 10:02:00,55.0,51.0,-100.00,WNW,291,6.0,12.0,85,0.00,,,0.74,97.000000,,2013-09-20 15:02:00,
2013-09-20 10:44:00,59.0,51.0,-100.00,WNW,299,7.0,14.0,76,0.00,,,0.74,252.000000,,2013-09-20 15:44:00,
2013-09-20 10:54:00,59.0,51.0,-100.00,WNW,299,7.0,14.0,76,0.00,,,0.74,252.000000,,2013-09-20 15:54:00,
2013-09-20 11:04:00,59.0,51.0,-100.00,WNW,299,7.0,14.0,76,0.00,,,0.74,252.000000,,2013-09-20 16:04:00,
2013-09-20 11:43:00,62.0,49.0,-100.00,WNW,299,10.0,19.0,63,0.00,,,0.72,483.000000,,2013-09-20 16:43:00,
2013-09-20 11:53:00,62.0,49.0,-100.00,WNW,299,10.0,19.0,63,0.00,,,0.72,483.000000,,2013-09-20 16:53:00,
2013-09-20 12:03:00,62.0,49.0,-100.00,WNW,299,10.0,19.0,63,0.00,,,0.72,483.000000,,2013-09-20 17:03:00,
2013-09-20 12:43:00,64.0,47.0,-100.00,NW,314,11.0,23.0,54,0.00,,,0.72,519.000000,,2013-09-20 17:43:00,
2013-09-20 12:53:00,64.0,47.0,-100.00,NW,314,11.0,23.0,54,0.00,,,0.72,519.000000,,2013-09-20 17:53:00,
2013-09-20 13:02:00,64.0,47.0,-100.00,NW,314,11.0,23.0,54,0.00,,,0.72,519.000000,,2013-09-20 18:02:00,
2013-09-20 13:42:00,68.0,49.0,-100.00,WNW,288,8.0,19.0,50,0.00,,,0.72,687.000000,,2013-09-20 18:42:00,
2013-09-20 13:52:00,68.0,49.0,-100.00,WNW,288,8.0,19.0,50,0.00,,,0.72,687.000000,,2013-09-20 18:52:00,
2013-09-20 14:02:00,68.0,49.0,-100.00,WNW,288,8.0,19.0,50,0.00,,,0.72,687.000000,,2013-09-20 19:02:00,
2013-09-20 14:42:00,68.0,50.0,-100.00,WNW,294,7.0,17.0,52,0.00,,,0.72,647.000000,,2013-09-20 19:42:00,
2013-09-20 14:53:00,68.0,50.0,-100.00,WNW,294,7.0,17.0,52,0.00,,,0.72,647.000000,,2013-09-20 19:53:00,
2013-09-20 15:03:00,68.0,50.0,-100.00,WNW,294,7.0,17.0,52,0.00,,,0.72,647.000000,,2013-09-20 20:03:00,
2013-09-20 15:42:00,69.0,50.0,-100.00,NW,318,7.0,19.0,50,0.00,,,0.72,587.000000,,2013-09-20 20:42:00,
2013-09-20 15:52:00,69.0,50.0,-100.00,NW,318,7.0,19.0,50,0.00,,,0.72,587.000000,,2013-09-20 20:52:00,
2013-09-20 16:02:00,69.0,50.0,-100.00,NW,318,7.0,19.0,50,0.00,,,0.72,587.000000,,2013-09-20 21:02:00,
2013-09-20 16:45:00,70.0,49.0,-100.00,WNW,292,8.0,16.0,48,0.00,,,0.72,593.000000,,2013-09-20 21:45:00,
2013-09-20 16:55:00,70.0,49.0,-100.00,WNW,292,8.0,16.0,48,0.00,,,0.72,593.000000,,2013-09-20 21:55:00,
2013-09-20 17:04:00,70.0,49.0,-100.00,WNW,292,8.0,16.0,48,0.00,,,0.72,593.000000,,2013-09-20 22:04:00,
2013-09-20 17:44:00,70.0,50.0,-100.00,NNW,328,7.0,18.0,49,0.00,,,0.69,388.000000,,2013-09-20 22:44:00,
2013-09-20 17:53:00,70.0,50.0,-100.00,NNW,328,7.0,18.0,49,0.00,,,0.69,388.000000,,2013-09-20 22:53:00,
2013-09-20 18:02:00,70.0,50.0,-100.00,NNW,328,7.0,18.0,49,0.00,,,0.69,388.000000,,2013-09-20 23:02:00,
2013-09-20 18:42:00,67.0,48.0,-100.00,WNW,301,6.0,14.0,51,0.00,,,0.30,237.000000,,2013-09-20 23:42:00,
2013-09-20 18:53:00,67.0,48.0,-100.00,WNW,301,6.0,14.0,51,0.00,,,0.30,237.000000,,2013-09-20 23:53:00,
2013-09-20 19:02:00,67.0,48.0,-100.00,WNW,301,6.0,14.0,51,0.00,,,0.30,237.000000,,2013-09-21 00:02:00,
2013-09-20 19:42:00,63.0,51.0,-100.00,WNW,291,0.0,10.0,65,0.00,,,0.13,50.000000,,2013-09-21 00:42:00,
2013-09-20 19:52:00,63.0,51.0,-100.00,WNW,291,0.0,10.0,65,0.00,,,0.13,50.000000,,2013-09-21 00:52:00,
2013-09-20 20:02:00,63.0,51.0,-100.00,WNW,291,0.0,10.0,65,0.00,,,0.13,50.000000,,2013-09-21 01:02:00,
2013-09-20 20:42:00,57.0,50.0,-100.00,WSW,247,1.0,3.0,78,0.00,,,0.01,1.000000,,2013-09-21 01:42:00,
2013-09-20 20:52:00,57.0,50.0,-100.00,WSW,247,1.0,3.0,78,0.00,,,0.01,1.000000,,2013-09-21 01:52:00,
2013-09-20 21:02:00,57.0,50.0,-100.00,WSW,247,1.0,3.0,78,0.00,,,0.01,1.000000,,2013-09-21 02:02:00,
2013-09-20 21:42:00,54.0,50.0,-100.00,West,270,1.0,3.0,87,0.00,,,0.01,0.000000,,2013-09-21 02:42:00,
2013-09-20 21:52:00,54.0,50.0,-100.00,West,270,1.0,3.0,87,0.00,,,0.01,0.000000,,2013-09-21 02:52:00,
2013-09-20 22:02:00,54.0,50.0,-100.00,West,270,1.0,3.0,87,0.00,,,0.01,0.000000,,2013-09-21 03:02:00,
2013-09-20 22:44:00,53.0,50.0,-100.00,West,276,3.0,6.0,88,0.00,,,0.00,0.000000,,2013-09-21 03:44:00,
2013-09-20 22:55:00,53.0,50.0,-100.00,West,276,3.0,6.0,88,0.00,,,0.00,0.000000,,2013-09-21 03:55:00,
2013-09-20 23:04:00,53.0,50.0,-100.00,West,276,3.0,6.0,88,0.00,,,0.00,0.000000,,2013-09-21 04:04:00,
2013-09-20 23:43:00,52.0,48.0,-100.00,WNW,292,3.0,7.0,87,0.00,,,0.00,0.000000,,2013-09-21 04:43:00,
2013-09-20 23:54:00,52.0,48.0,-100.00,WNW,292,3.0,7.0,87,0.00,,,0.00,0.000000,,2013-09-21 04:54:00,